Location: Newark
(45.4422°N, 16.2769°E)
Time: 15:10:17
(UTC+00:00)

S-56A Canister/Altair - Pass Details

Date: 18 December 2019
Orbit: 634 x 2498 km, 38.9° (Epoch: 20 January)

Event Time Altitude Azimuth Distance (km) Brightness Sun altitude
Rises 05:33:03 0° 210° (SSW) 4,696 11.5 -9.5°
Reaches altitude 10° 05:36:12 10° 201° (SSW) 3,966 11.2 -9.0°
Maximum altitude 05:45:43 35° 141° (SE) 3,050 11.3 -7.5°
Drops below altitude 10° 05:57:53 10° 84° (E) 5,089 12.7 -5.6°
Sets 06:02:31 0° 77° (ENE) 6,172 13.0 -4.9°
